Location: Klinovec
(50.3970°N, 12.9600°E)
Time: 16:17:44
(UTC+01:00)

N. Korean satellite - Pass Details

Date: 20 November 2019
Orbit: 455 x 507 km, 97.2° (Epoch: 14 December)

Event Time Altitude Azimuth Distance (km) Brightness Sun altitude
Rises 17:19:42 0° 176° (S) 2,567 10.4 -9.9°
Reaches altitude 10° 17:21:47 10° 181° (S) 1,697 9.6 -10.2°
Maximum altitude 17:25:22 55° 260° (W) 609 7.5 -10.7°
Drops below altitude 10° 17:29:03 10° 339° (NNW) 1,730 9.4 -11.3°
Sets 17:31:12 0° 344° (NNW) 2,624 10.3 -11.6°
